Theta_e
314 315 313 313 312 312 312 313 318 319 319 320 320 323 323 318 316 317 316 315 315 316 316 316 315 315 315 316 317 316 314 314 314 315 316 316 315 314 317 318 319 321 319 319 325 329 331 333 333 334 334 334 334 334 334 334 335 335 335 334 334 334 333 334 334 335 334 333 333 333 333 333 333 334 334 334 333 332 332 332 331 331 331 331 331 330
313 314 313 312 312 313 312 314 315 313 315 318 318 318 319 320 318 315 315 315 314 315 316 316 315 315 316 315 316 314 313 314 315 315 316 318 317 316 317 317 317 320 318 317 321 325 328 331 332 333 334 334 334 334 333 334 334 335 335 334 334 334 333 334 333 334 334 333 332 332 332 332 332 332 333 332 332 332 332 332 332 332 332 332 332 331
312 313 313 312 313 314 313 314 314 312 314 317 318 317 317 321 319 314 314 315 314 314 315 317 315 315 317 316 315 315 314 314 314 315 316 318 320 319 319 319 320 324 324 321 320 321 327 331 331 333 334 333 333 334 333 333 334 334 334 334 334 334 333 333 333 333 333 333 332 331 331 331 331 331 331 331 330 330 330 331 332 332 332 332 332 331
314 314 313 312 312 313 313 313 313 313 314 318 319 316 317 319 318 315 314 314 315 313 314 316 316 317 318 318 318 315 313 314 314 314 316 318 320 321 322 322 324 327 325 322 320 317 320 326 329 331 333 333 333 333 334 333 334 334 334 334 334 334 334 333 333 333 332 332 332 331 330 330 330 330 330 330 330 330 330 331 331 332 332 332 332 331
316 316 314 313 312 312 313 312 314 312 313 319 320 317 317 318 318 317 315 315 314 313 314 315 314 320 320 315 317 316 312 314 316 316 317 318 321 325 326 322 323 327 325 323 323 317 313 317 322 327 329 331 332 333 334 334 334 334 334 334 334 334 334 333 333 333 332 331 331 331 331 331 330 330 330 330 331 331 331 331 332 332 332 332 332 331
314 314 314 314 312 313 313 313 316 315 314 317 321 322 318 316 320 319 317 318 314 313 316 312 311 325 329 316 313 314 314 315 315 316 316 317 321 324 323 323 325 327 326 325 324 316 310 312 315 317 320 323 327 330 331 333 333 334 334 334 334 334 334 334 333 333 332 331 331 331 331 331 330 330 331 331 331 331 331 331 331 331 331 331 331 330
315 312 314 315 313 315 315 314 317 319 318 316 317 321 318 318 323 319 317 321 318 314 315 313 311 319 325 324 317 314 314 316 314 315 317 318 322 324 324 329 331 329 326 324 322 315 310 311 312 312 313 314 317 321 324 327 330 331 333 334 334 334 334 334 333 333 332 331 331 331 331 330 330 330 330 331 330 330 330 330 329 329 330 329 329 328
314 312 315 316 314 316 316 314 316 317 319 319 319 319 318 321 324 318 318 327 326 319 315 318 318 312 317 328 321 313 313 315 315 316 318 321 324 326 327 331 333 331 328 326 325 320 313 312 312 311 312 311 311 313 314 319 325 327 330 332 333 333 333 334 333 333 332 331 331 331 330 330 330 330 330 329 329 329 328 328 327 327 328 328 327 327
315 315 317 318 316 316 316 317 321 320 318 321 321 320 320 321 323 321 322 328 326 320 317 320 317 312 324 333 318 311 314 314 317 318 318 322 325 326 328 328 329 329 328 328 327 321 314 313 314 313 312 312 311 310 310 315 322 325 327 329 331 332 332 333 333 332 332 331 331 331 330 330 330 330 329 328 327 327 327 326 326 326 327 326 326 326
317 315 315 318 317 318 319 320 326 326 317 320 322 322 324 324 324 323 328 331 320 316 324 326 316 311 325 333 316 309 315 314 316 318 316 319 323 325 327 326 325 325 325 326 320 314 312 313 314 313 313 312 312 311 310 313 319 323 326 328 329 330 331 331 332 332 331 331 331 330 330 329 329 329 328 327 326 326 326 326 325 325 325 325 325 324
314 313 314 317 317 319 320 318 323 326 319 321 325 324 324 327 331 333 337 335 318 319 335 330 320 313 317 328 321 312 316 316 314 317 317 319 322 325 327 326 325 324 323 323 318 312 311 313 313 313 313 312 312 312 310 312 316 320 323 327 328 328 329 330 330 330 330 330 329 329 328 328 328 327 327 326 325 325 325 324 324 323 322 321 320 320
317 320 318 317 314 315 320 319 320 322 322 326 328 324 319 324 335 337 333 325 317 327 335 323 317 316 315 324 324 316 317 316 314 318 321 321 323 325 326 325 325 324 322 322 320 315 311 311 313 313 314 314 314 313 311 310 314 319 322 325 326 326 327 328 328 328 328 327 327 326 327 327 326 325 325 325 324 323 322 321 320 320 319 319 318 318
322 323 320 318 315 314 319 321 319 320 324 327 324 320 321 323 326 327 325 323 324 324 320 315 316 317 317 321 319 316 316 315 316 318 320 320 323 325 324 323 323 322 322 320 320 319 312 309 312 314 316 317 316 316 315 313 315 319 321 323 323 324 324 325 326 326 325 325 325 325 325 325 324 324 323 323 323 322 320 319 319 319 318 318 317 317
322 320 318 320 316 313 316 318 317 321 322 318 315 317 325 326 318 317 320 322 324 321 315 313 316 318 319 318 316 316 315 317 318 318 318 319 321 323 322 322 322 321 321 320 319 320 314 309 311 314 317 318 317 318 318 317 317 319 320 321 322 322 323 323 324 324 324 324 324 324 323 323 323 323 322 322 321 320 318 318 317 317 316 315 315 315
321 319 317 317 314 313 317 316 319 325 321 318 319 318 324 328 324 322 323 323 323 322 316 311 315 322 319 313 314 313 312 316 319 319 319 319 319 321 321 322 322 320 320 319 318 317 312 309 312 313 315 317 317 318 319 319 319 319 321 321 321 321 322 322 323 323 323 323 323 323 322 322 322 321 320 319 318 317 316 316 315 315 314 314 313 312
318 318 319 318 314 315 317 316 318 321 320 321 321 320 321 326 332 328 325 331 328 320 317 314 320 326 317 310 312 311 312 315 317 319 320 320 320 321 321 321 321 320 318 318 318 316 310 308 311 312 312 314 314 316 318 319 319 319 319 319 319 320 321 321 321 321 321 320 321 321 320 320 319 318 317 315 315 314 314 314 313 312 311 310 308 307
316 317 318 318 315 314 315 315 316 316 319 322 319 322 324 322 329 325 315 320 322 319 320 316 318 322 314 312 312 310 314 315 314 318 319 320 321 319 320 320 319 320 318 317 317 314 308 307 309 310 311 312 311 313 315 317 318 318 317 317 317 318 318 318 319 318 317 317 317 317 316 316 316 315 314 313 312 311 311 310 309 308 307 306 305 305
318 318 316 317 316 314 313 314 316 315 319 323 320 322 321 316 323 325 316 315 316 320 325 316 315 319 315 316 316 310 314 314 313 316 316 317 319 319 319 319 318 318 317 316 315 310 306 306 307 308 309 310 310 311 312 313 315 316 316 316 315 316 316 315 315 314 314 314 314 313 314 314 313 313 312 310 309 308 308 307 306 306 305 305 305 305
321 321 316 314 317 317 315 315 317 315 314 320 322 320 320 319 322 322 318 317 315 316 322 317 315 319 317 318 318 313 314 314 313 315 316 316 317 317 319 318 317 316 315 314 315 311 305 305 306 307 308 309 309 309 310 310 311 312 313 313 313 313 312 312 312 312 311 311 311 311 311 312 311 309 308 307 306 306 306 305 305 305 304 304 303 303
320 323 318 314 315 317 318 317 318 317 313 315 317 315 318 324 325 322 317 319 320 318 321 317 314 321 323 320 320 318 318 315 312 314 315 315 315 316 317 317 316 315 315 313 314 311 305 304 306 307 307 307 307 308 308 308 309 309 309 310 310 310 310 309 309 309 309 308 308 308 308 308 307 306 305 305 305 305 305 304 304 303 303 302 301 300
316 321 321 316 314 315 318 318 318 318 315 316 316 313 315 316 319 322 318 321 325 324 325 318 315 330 332 317 317 320 318 314 311 313 313 313 314 316 316 316 314 314 314 312 313 310 304 304 306 306 306 306 306 306 307 307 307 307 307 308 308 308 308 307 306 306 306 306 305 305 305 305 304 304 305 305 305 304 303 303 301 300 300 298 297 297
319 319 320 318 317 318 319 316 315 316 315 315 315 314 316 316 317 318 315 319 321 321 330 325 318 332 329 311 313 316 313 312 310 311 314 312 313 316 315 315 314 313 313 312 312 308 303 303 305 305 306 306 305 306 305 305 305 305 306 306 306 306 306 305 304 304 304 304 304 304 304 304 304 304 304 303 302 301 300 299 298 297 296 296 295 295
323 321 320 319 318 318 317 312 311 314 316 315 314 316 318 317 320 321 320 324 318 313 325 324 316 329 326 311 314 317 314 313 310 311 314 312 313 316 316 315 314 313 313 311 309 305 302 304 305 305 305 305 305 305 304 304 305 304 304 304 304 304 303 303 303 303 303 303 303 304 304 304 304 303 302 300 299 298 297 296 295 295 295 294 294 294
321 321 320 318 317 317 317 314 312 313 315 316 317 318 318 317 322 326 327 329 321 313 319 315 313 330 332 317 318 319 316 316 312 311 313 312 313 316 316 315 315 314 313 311 308 304 302 304 304 304 304 304 304 304 303 304 303 303 304 303 303 303 302 303 303 303 304 304 304 304 303 302 301 300 298 297 296 295 295 294 294 294 294 294 293 293
321 320 319 319 318 319 320 318 315 315 315 319 320 318 319 320 319 321 319 317 319 322 322 317 318 329 328 318 317 316 314 315 313 311 313 314 315 316 315 314 315 314 312 311 309 306 304 303 303 304 304 303 303 303 303 303 303 303 303 303 303 302 302 303 303 303 304 304 303 302 301 299 298 297 296 295 294 294 294 294 294 293 293 293 293 292
326 323 320 321 319 318 319 317 318 319 317 318 320 317 320 322 316 317 319 315 319 324 320 318 322 323 321 317 314 312 312 313 314 312 313 314 315 315 315 314 314 313 311 310 309 308 306 304 303 303 303 303 303 302 302 302 302 302 302 302 302 302 302 303 303 303 303 302 301 299 298 297 296 295 294 294 294 293 293 293 293 293 293 292 292 292
327 323 317 319 317 315 317 316 319 322 318 317 320 318 319 321 316 319 324 319 319 322 319 319 320 317 317 320 317 316 315 314 315 314 313 314 315 315 314 313 313 311 310 310 308 308 308 306 303 303 303 303 302 302 302 301 302 302 302 302 302 302 303 302 302 302 301 300 298 297 296 294 294 294 293 293 293 293 293 293 292 292 292 291 291 291
324 319 317 318 316 315 317 317 318 319 317 316 319 319 318 319 318 319 320 317 318 320 318 320 320 315 316 322 324 322 317 313 313 314 313 314 315 315 315 314 313 312 310 309 309 308 308 307 304 301 302 303 302 302 301 301 301 302 302 302 302 302 302 301 301 300 298 297 296 294 294 293 293 293 293 293 292 292 292 292 292 291 291 291 290 290
321 318 319 318 316 316 317 318 317 317 316 316 317 318 318 319 320 319 318 317 319 318 315 316 319 317 316 318 321 322 318 312 311 312 314 315 315 315 315 314 313 313 311 310 309 308 308 307 304 301 301 302 301 301 301 301 301 301 301 301 301 301 300 300 299 298 296 295 294 293 293 293 292 292 292 292 292 292 291 291 290 290 290 290 290 290
318 318 320 316 314 316 318 319 318 316 316 317 317 317 317 318 319 318 317 316 317 318 316 315 317 317 316 317 321 323 318 311 309 313 316 317 317 315 314 314 313 312 311 310 309 307 307 306 302 301 301 301 300 300 300 300 300 300 300 300 300 300 299 298 297 296 294 294 293 293 292 292 292 292 291 291 291 291 290 290 290 290 290 290 290 290
315 318 320 317 314 316 319 321 320 319 318 317 318 317 316 317 317 317 317 317 316 317 316 316 318 317 315 316 320 322 316 309 310 315 316 316 316 315 314 314 313 312 311 310 309 307 307 305 301 300 300 300 300 300 300 300 300 300 300 300 299 299 298 296 295 294 293 293 292 292 292 292 291 291 291 291 290 290 290 290 290 290 290 290 289 289
317 321 321 321 318 317 319 320 320 320 318 316 319 320 318 317 317 316 316 316 316 316 317 317 317 315 314 317 319 320 316 312 313 313 313 314 316 314 315 314 313 312 311 310 309 308 307 306 302 301 300 300 300 300 300 300 299 299 299 299 298 297 296 295 294 293 293 292 292 291 291 291 291 290 290 290 290 290 290 290 290 290 289 289 289 289
322 324 324 322 319 316 316 318 319 319 317 316 319 320 317 316 315 315 316 316 315 315 316 316 315 312 315 318 317 316 316 316 315 312 311 314 315 313 314 314 313 312 311 310 309 308 307 305 303 301 301 300 300 300 301 300 300 299 299 298 297 296 294 293 293 292 292 291 291 291 290 290 290 290 290 290 290 290 290 289 289 289 289 289 288 288
320 323 323 321 321 318 316 317 319 319 316 315 318 319 318 316 315 316 317 316 315 314 314 314 313 312 315 318 317 315 316 316 315 313 311 312 314 314 313 313 312 312 311 310 310 308 306 304 302 302 301 300 301 301 301 300 300 299 298 297 296 294 293 292 292 291 291 290 290 290 290 289 289 289 289 290 289 289 289 289 289 288 288 288 288 288
318 321 320 319 321 319 317 317 318 317 315 316 322 323 318 315 316 317 317 315 314 314 314 314 314 313 315 318 317 315 315 315 314 313 312 312 313 314 314 313 312 311 311 311 310 308 304 303 302 301 300 301 301 300 300 299 299 298 297 296 294 293 292 292 291 291 290 290 289 289 289 289 289 289 289 289 289 289 289 288 288 288 288 288 288 287
316 318 317 317 319 318 316 316 318 318 316 319 323 321 316 315 316 317 317 316 315 315 315 314 313 313 314 316 316 318 318 315 312 313 313 312 312 313 314 313 311 311 311 310 309 307 304 303 303 301 301 301 300 299 299 299 298 297 296 295 293 292 291 291 290 290 289 289 289 289 289 289 289 289 289 289 289 288 288 288 288 288 287 287 287 287
314 316 317 316 317 318 317 315 317 318 317 318 319 316 314 316 318 317 318 317 315 315 315 313 313 313 313 314 317 320 319 313 312 315 315 313 312 313 313 313 311 310 309 307 307 306 305 304 303 302 301 300 299 299 299 298 298 296 295 294 293 292 291 290 290 289 289 289 289 288 289 289 289 289 289 288 288 288 288 288 287 287 287 287 287 287
313 316 317 316 317 320 319 316 317 318 317 316 316 315 315 319 321 317 316 316 314 315 314 313 314 314 313 315 319 319 315 313 315 316 315 314 315 313 311 309 306 306 307 306 306 306 304 304 303 301 301 300 298 298 299 298 297 295 293 293 292 291 291 290 289 289 289 288 288 288 289 289 289 288 288 288 288 288 287 287 287 287 286 286 286 286
317 318 317 316 317 318 318 317 317 317 317 317 319 319 317 321 321 315 315 316 315 316 316 313 313 314 313 316 319 317 314 316 316 314 314 318 316 312 312 312 307 305 306 306 306 305 304 303 302 301 300 299 298 298 298 297 295 294 293 292 292 291 290 290 289 289 288 288 288 288 289 288 288 288 288 288 287 287 287 286 286 286 286 286 286 286
316 317 316 316 316 316 316 316 316 315 316 320 325 322 316 317 318 317 317 316 315 317 317 314 313 315 314 315 316 315 314 316 315 314 318 320 315 308 308 313 309 303 303 304 305 304 303 301 300 299 298 299 298 298 297 295 293 292 292 292 291 290 289 289 289 288 288 288 288 288 288 288 288 287 287 287 287 286 286 286 286 286 286 285 285 285
316 317 316 315 315 316 316 315 315 316 321 326 327 321 314 313 315 316 316 316 317 316 315 313 313 313 313 315 314 312 314 316 315 315 313 313 314 307 300 301 302 301 301 302 302 302 301 300 299 299 298 298 298 297 295 294 292 291 291 291 290 289 289 288 288 288 287 288 288 288 288 287 287 287 287 287 286 286 286 286 285 285 285 285 285 285
316 317 316 315 315 316 316 316 316 317 321 324 320 314 312 313 317 320 318 316 319 319 316 316 316 314 316 317 314 312 316 315 312 312 310 310 315 311 300 295 297 297 298 299 299 299 299 297 297 297 296 296 296 295 294 292 291 290 290 290 289 288 288 288 287 287 287 288 287 287 287 287 287 287 286 286 286 285 285 285 285 285 285 285 285 285
314 315 316 315 315 316 315 314 316 315 315 316 315 311 312 316 321 324 320 314 314 318 319 319 317 316 319 319 314 313 317 314 309 308 309 307 308 306 299 295 295 294 295 296 296 297 297 296 294 294 294 294 294 293 292 291 290 290 289 288 288 287 287 287 287 287 287 287 287 287 287 287 286 286 286 286 285 285 285 284 284 284 284 285 285 285
314 315 317 315 314 317 315 314 319 320 314 313 315 314 315 317 317 320 321 316 312 314 318 318 315 314 319 322 317 314 315 314 309 307 307 305 304 302 298 295 293 293 294 295 295 295 295 294 292 291 292 292 292 292 291 290 290 289 288 287 287 286 286 286 287 287 287 287 286 286 286 286 285 285 285 285 285 284 284 284 284 284 284 284 284 284
313 315 319 317 315 317 317 316 321 321 314 310 312 313 314 315 314 315 320 319 313 311 314 317 315 314 318 320 317 314 313 312 309 307 309 308 303 300 298 295 293 293 293 293 293 293 293 292 290 289 289 290 290 291 290 289 290 289 287 286 287 286 286 287 287 287 287 286 286 286 285 285 284 284 284 284 283 283 284 284 284 284 284 284 283 282
314 315 317 317 315 315 316 315 316 315 312 310 308 308 309 311 311 313 317 316 311 308 310 313 315 316 318 318 317 316 315 314 311 308 307 305 301 297 295 293 292 292 292 291 291 291 290 289 288 287 287 288 289 289 289 289 289 289 287 287 286 286 286 287 287 286 286 286 285 284 284 284 284 284 283 283 283 283 283 283 283 283 283 282 281 280
314 313 313 316 316 314 316 318 316 314 312 311 308 308 308 308 309 312 313 310 307 306 307 308 309 310 314 316 319 320 316 312 312 310 303 299 299 296 293 291 291 291 290 290 289 289 288 287 285 285 285 286 287 288 288 288 288 288 287 287 286 286 287 287 287 286 285 284 284 283 283 283 283 283 282 282 282 282 282 282 283 283 282 281 279 278
314 311 313 318 317 314 313 314 311 309 308 306 307 309 307 306 307 307 306 305 305 306 306 306 305 307 309 310 314 318 316 309 309 309 303 297 297 295 291 290 290 289 289 289 288 288 287 286 284 283 283 284 285 286 287 286 286 286 286 286 286 286 287 286 285 285 284 283 283 283 283 283 282 282 282 282 282 282 282 282 282 281 280 278 277 276
311 311 315 318 316 314 312 308 306 309 308 303 302 304 302 303 305 304 303 304 305 306 305 304 302 302 304 305 307 312 314 309 304 303 302 298 296 293 290 289 289 289 288 288 287 287 287 285 284 283 282 282 283 284 284 284 284 285 285 286 286 286 286 285 284 283 283 282 282 282 282 282 282 282 282 283 282 282 282 281 280 280 278 277 276 275
310 313 315 315 315 316 315 310 310 314 311 303 300 300 300 301 303 302 302 303 303 303 303 302 300 297 297 298 300 304 309 308 301 298 299 298 294 291 289 288 288 288 287 287 286 286 286 285 283 282 281 281 282 282 283 283 283 284 285 285 285 285 285 284 283 282 282 282 281 281 281 281 282 282 283 283 282 281 280 280 279 278 277 276 275 275
311 314 315 314 314 313 310 307 307 309 306 301 299 299 299 299 300 302 302 301 300 300 300 301 302 301 299 297 295 297 304 305 297 295 299 297 292 290 289 288 288 287 286 286 286 285 284 283 282 281 280 280 280 281 281 282 282 283 283 284 284 284 284 284 283 282 282 281 281 281 281 281 282 282 282 282 281 281 280 279 278 277 275 274 274 275
Wind_Speed
4 4 5 7 6 7 7 7 7 7 6 7 6 4 5 6 2 2 2 3 3 5 5 7 6 7 7 8 8 7 5 6 8 7 7 7 7 8 9 8 9 9 8 12 21 24 26 27 26 26 28 28 29 29 30 30 29 29 29 30 29 28 26 26 27 27 27 26 25 25 26 25 24 22 21 20 21 21 20 20 20 20 20 20 20 19
5 6 7 7 7 8 7 7 7 7 4 5 6 5 4 5 3 2 2 3 1 3 5 3 4 8 8 8 8 6 6 7 9 8 8 8 7 7 9 9 9 6 4 6 14 20 24 26 26 25 27 28 29 30 31 31 31 31 30 30 30 30 29 28 28 29 29 28 27 27 27 27 25 23 22 21 20 20 20 20 20 21 20 20 20 19
5 6 7 8 7 8 8 8 8 7 5 5 5 6 5 4 3 1 2 2 2 2 3 1 5 9 8 7 7 7 9 8 10 11 10 10 8 7 8 9 7 5 4 5 8 14 20 24 26 25 26 28 29 30 31 31 31 30 31 31 30 31 31 29 28 29 29 29 27 25 24 24 23 22 21 19 17 16 17 18 19 19 19 19 19 19
5 6 7 9 8 7 7 9 9 6 4 5 5 6 5 4 5 1 2 1 2 2 1 2 2 6 6 5 7 8 9 7 8 10 8 7 9 9 8 7 8 9 8 7 6 10 15 19 22 24 25 26 27 27 29 30 30 31 31 31 30 31 31 30 29 28 28 27 24 23 20 18 18 18 18 17 16 15 15 15 15 16 16 16 16 16
6 5 5 8 10 8 7 8 8 6 4 3 6 7 5 6 5 3 3 2 3 2 1 4 3 6 4 6 8 6 6 6 7 8 6 4 5 5 4 5 7 9 9 9 8 8 11 16 19 21 22 23 24 25 27 28 30 30 31 31 30 30 30 30 29 28 26 25 24 22 20 18 18 16 15 16 15 14 13 12 13 13 13 13 12 13
6 4 4 8 10 9 7 6 7 8 5 3 5 7 9 10 6 6 8 6 4 3 2 3 2 6 4 6 10 5 4 6 4 7 9 6 4 5 5 5 5 5 6 7 7 8 11 14 16 17 18 20 22 24 24 25 26 27 29 30 28 28 28 29 29 27 26 26 25 24 23 22 21 18 15 14 13 11 9 9 9 9 9 10 9 10
3 2 3 7 11 10 7 6 7 8 5 2 4 5 9 10 9 11 10 5 3 3 3 4 5 5 5 4 9 5 7 7 3 5 8 6 5 5 6 5 5 5 4 3 4 7 10 12 14 15 17 19 20 21 21 21 23 24 26 27 27 26 26 27 28 28 27 26 25 25 25 23 21 19 14 12 11 10 9 8 7 7 7 7 6 7
2 3 3 6 9 9 7 5 7 7 7 3 4 6 11 11 10 11 9 4 3 3 2 3 4 3 4 5 6 3 7 6 5 7 7 6 6 5 5 5 5 6 5 5 4 5 7 11 14 15 16 16 17 18 18 19 20 22 24 25 26 25 24 25 26 28 27 26 25 25 24 22 19 16 12 9 9 9 9 9 7 7 8 8 7 8
1 6 6 6 8 7 6 4 5 8 6 4 4 7 9 10 9 8 7 4 2 3 1 4 2 2 5 6 4 3 6 6 8 10 9 7 7 6 6 5 5 5 5 5 5 5 7 10 12 13 13 13 14 17 18 18 18 19 21 23 24 23 22 23 24 26 27 25 24 22 21 19 16 13 10 9 9 9 10 9 8 8 8 8 8 9
2 5 4 5 6 6 5 2 4 6 4 4 4 7 6 6 6 6 6 5 4 3 4 7 2 2 5 5 2 2 3 7 9 9 8 7 7 6 6 5 5 4 4 4 5 7 8 9 11 11 11 11 12 15 17 17 17 18 19 21 23 21 21 21 22 24 25 25 23 20 17 15 13 13 12 10 9 9 10 10 10 9 9 10 10 10
3 1 0 2 3 4 5 3 2 4 6 6 7 8 7 6 5 4 3 5 4 2 6 6 1 3 2 5 3 4 4 7 7 5 5 6 6 6 6 6 6 5 4 4 5 7 9 9 10 10 10 10 11 12 15 17 17 17 19 20 21 20 19 20 20 21 22 22 21 17 15 14 14 14 14 12 8 7 8 8 8 7 7 7 6 5
4 3 1 0 1 1 5 4 3 2 5 7 6 6 5 4 4 4 4 3 3 4 6 4 1 3 3 6 5 5 6 6 8 7 8 9 7 7 6 6 6 5 5 5 5 6 8 9 10 10 10 11 11 12 14 17 17 17 19 20 21 19 18 18 19 19 19 18 17 15 14 14 13 13 13 12 9 7 7 6 5 4 3 3 2 2
4 3 3 3 2 1 4 4 4 4 4 6 6 7 6 2 2 1 2 1 3 5 3 2 1 2 5 7 7 7 7 6 7 8 10 11 9 7 7 6 6 5 5 5 5 5 6 8 10 11 12 13 14 14 14 17 19 19 19 20 20 19 17 18 18 18 18 16 16 16 15 14 13 13 13 12 10 8 6 5 5 4 4 4 3 3
1 4 4 3 2 1 3 4 3 1 1 5 7 6 5 4 3 3 4 1 2 4 3 2 1 2 4 6 7 8 7 6 6 6 8 10 10 8 7 6 5 5 5 5 5 4 5 8 11 12 13 14 15 15 15 17 19 20 20 20 21 18 17 18 18 19 19 17 16 16 16 16 15 14 12 11 10 9 7 7 6 5 5 5 4 3
4 2 2 1 0 1 1 3 5 6 5 4 5 6 6 5 5 5 4 3 3 2 2 2 1 4 3 3 6 6 4 4 3 2 5 6 6 7 6 6 6 5 5 5 5 5 6 9 12 13 13 14 15 15 16 16 18 20 21 21 22 20 19 19 20 20 20 18 17 17 17 16 15 14 12 11 10 10 9 8 7 7 6 5 4 2
6 3 4 2 0 1 1 2 2 7 4 3 3 6 4 5 5 4 3 5 5 1 1 2 3 4 4 4 5 2 3 4 4 5 7 6 5 7 6 6 6 5 5 5 5 5 7 10 13 14 14 14 15 16 17 17 18 19 20 20 21 21 20 19 20 20 19 18 18 17 16 16 15 14 13 11 11 10 9 9 9 8 7 5 5 5
6 2 4 3 2 1 1 3 2 3 4 1 3 4 5 4 7 5 2 1 4 2 3 2 3 4 3 4 4 2 2 1 2 3 6 6 6 7 6 5 6 5 5 5 5 5 7 11 13 14 15 15 16 17 18 18 18 19 19 20 20 20 19 18 18 18 18 18 17 17 16 16 16 15 14 13 12 11 11 10 9 8 8 8 9 10
6 1 4 2 2 2 1 0 3 2 4 5 3 6 3 3 4 5 2 2 4 2 3 2 4 4 1 2 4 3 4 6 4 4 5 5 6 7 6 6 6 6 6 5 6 6 8 11 13 14 15 16 17 18 19 20 20 20 21 21 21 21 20 19 19 19 19 19 19 18 18 17 17 16 15 14 14 13 12 12 11 11 12 13 13 13
5 3 3 1 1 3 3 3 1 2 2 4 4 4 4 3 1 2 3 2 2 3 4 3 3 3 4 4 4 5 8 9 8 6 6 7 8 7 6 6 6 6 6 5 6 5 7 11 14 15 16 16 17 18 19 21 21 22 22 22 23 23 22 22 21 21 21 20 20 20 19 19 17 17 16 15 15 15 15 15 15 14 15 15 14 13
4 4 2 2 2 2 3 2 4 2 1 2 1 2 3 3 4 3 3 4 4 4 4 2 1 3 6 6 7 10 12 12 10 9 9 10 9 8 7 7 7 7 7 6 6 5 7 12 14 16 17 17 18 19 20 21 22 22 23 23 24 23 23 23 22 22 22 21 21 21 21 20 19 18 19 18 18 18 18 17 16 16 15 15 14 13
3 3 3 1 3 1 1 1 5 6 3 1 2 3 1 1 3 2 2 3 4 4 3 2 2 5 6 4 8 11 11 11 11 11 10 9 9 8 8 8 8 7 7 6 6 6 8 13 15 16 18 18 19 19 20 22 22 23 23 23 24 24 24 24 23 23 23 23 23 23 23 22 21 22 21 20 20 19 19 18 17 16 15 14 14 13
2 3 5 3 0 2 3 3 2 4 4 3 4 6 6 3 4 3 3 2 2 3 4 5 3 7 6 4 6 8 8 8 9 10 9 8 9 9 8 9 8 7 7 7 7 7 9 14 16 17 18 18 19 20 21 22 23 23 24 24 24 25 25 25 25 25 25 25 25 25 25 24 23 22 21 21 20 20 19 18 17 16 14 14 14 13
3 4 5 2 2 4 4 3 1 2 2 2 2 3 4 4 4 5 5 4 1 1 2 4 2 6 6 4 4 5 6 6 7 9 8 7 9 8 8 8 7 7 7 7 7 8 11 15 16 18 18 18 20 20 21 22 23 24 25 25 26 26 26 26 27 27 27 27 26 26 26 25 23 23 22 21 21 20 19 18 17 15 14 14 13 11
4 4 4 2 1 2 4 3 2 1 2 2 3 3 4 3 3 5 5 4 2 3 2 2 3 6 6 5 4 5 5 4 6 8 8 7 7 7 8 8 7 7 7 7 7 8 12 15 16 17 18 18 19 20 22 23 24 25 25 26 27 27 27 28 28 28 28 27 27 26 25 25 23 22 22 21 21 20 18 17 16 14 13 12 11 10
2 3 4 4 2 2 3 2 2 2 2 2 3 2 3 4 5 3 2 3 1 4 6 5 5 6 6 5 4 5 5 1 5 7 8 8 7 7 8 7 8 8 8 8 8 8 10 12 14 15 17 18 20 21 22 24 25 26 26 26 27 28 28 28 28 28 27 27 27 26 25 24 23 22 22 21 20 19 17 15 14 13 12 11 11 11
3 4 4 5 6 5 5 5 4 3 2 1 1 3 4 6 8 5 2 3 3 4 5 6 6 7 6 5 5 5 4 1 5 6 6 7 8 8 8 8 8 8 8 9 9 8 9 10 12 15 16 18 20 22 23 24 25 26 26 26 27 27 28 27 27 27 27 27 27 26 25 24 22 22 21 20 18 17 15 14 13 12 11 11 11 12
4 3 5 8 10 10 9 6 5 7 6 5 7 8 9 8 9 7 4 4 5 3 4 6 7 7 7 5 5 6 3 3 5 6 7 7 8 8 8 8 7 7 7 8 8 8 8 9 11 14 17 18 21 22 24 25 26 26 26 26 26 26 27 27 27 27 27 27 27 26 25 23 22 21 19 18 16 15 14 13 12 12 12 12 12 12
4 3 6 9 10 8 8 6 8 11 11 12 12 11 9 7 7 8 6 8 5 4 5 8 7 7 7 6 7 7 5 5 6 8 9 8 8 7 7 8 8 7 7 8 8 9 9 9 10 14 18 20 22 23 23 24 25 26 27 27 26 26 27 27 27 27 27 27 26 25 24 22 20 19 17 16 15 14 13 12 12 12 12 12 12 12
5 5 5 7 6 3 5 7 10 11 10 11 12 13 12 10 10 10 11 10 7 6 10 12 10 10 8 7 9 8 8 8 9 8 6 5 7 7 8 9 9 9 9 10 10 10 10 9 10 15 19 21 23 24 24 25 25 26 26 26 26 26 26 27 28 28 27 26 26 24 22 21 19 17 16 15 13 13 12 12 12 11 11 11 11 12
4 3 3 5 5 1 1 4 9 10 8 8 10 12 13 13 14 15 15 14 11 11 13 12 9 10 8 8 9 8 7 6 4 4 4 6 8 9 10 10 10 11 12 12 12 11 10 10 12 17 20 22 24 25 26 26 26 27 27 27 27 27 27 28 28 28 27 26 25 23 21 20 18 17 15 13 13 12 12 11 11 10 10 11 11 11
2 2 1 4 4 1 3 3 4 7 7 7 7 9 10 11 13 14 14 14 10 9 11 8 7 10 6 7 8 7 4 4 4 6 8 8 9 10 10 11 11 12 12 12 11 10 10 10 13 18 20 23 25 26 27 27 27 28 28 28 28 28 28 28 28 28 27 25 24 22 21 19 18 16 15 13 12 11 11 10 10 9 10 10 10 11
2 2 1 5 4 2 4 4 3 4 4 3 5 8 12 13 12 13 12 11 9 10 11 8 8 11 5 6 7 6 5 6 7 10 9 7 8 11 12 13 13 13 13 12 11 11 12 12 15 19 22 24 26 27 29 30 30 30 30 30 29 29 28 28 28 27 26 25 23 22 20 18 17 16 14 13 11 10 10 9 9 9 9 9 10 11
4 5 2 3 4 2 5 2 3 6 4 4 7 10 15 14 11 9 8 9 10 10 9 9 12 11 4 6 8 5 6 8 10 8 8 8 9 11 12 13 14 14 14 13 13 13 14 15 18 22 25 27 29 31 32 33 33 33 32 31 30 29 29 28 28 27 25 24 23 21 19 18 16 15 14 12 11 9 9 8 8 8 8 9 10 11
4 6 3 3 3 1 4 3 4 3 5 7 3 8 13 13 12 10 10 13 13 11 9 10 10 6 4 7 10 7 8 10 10 9 10 9 9 10 11 12 13 13 12 12 12 13 14 17 20 23 26 29 31 32 33 33 33 33 32 32 31 30 29 28 27 26 25 23 22 20 19 17 15 14 13 11 10 9 8 8 8 8 8 9 10 11
5 6 4 3 3 1 1 4 2 6 9 5 1 5 11 12 14 15 15 15 13 12 12 12 12 8 6 9 10 9 9 10 8 9 10 9 10 11 12 12 13 12 11 11 12 12 15 19 22 24 28 31 32 32 32 32 32 33 33 32 32 30 29 28 27 25 24 23 21 19 18 16 15 13 12 11 10 9 8 7 7 7 8 9 10 11
9 7 4 4 3 2 2 4 6 7 5 5 5 3 5 6 8 9 10 10 9 9 11 13 16 14 10 9 8 6 5 5 5 7 9 9 9 10 12 13 14 13 14 15 17 18 22 27 29 30 32 32 33 33 33 33 34 34 34 32 31 30 29 28 26 24 23 22 20 19 17 15 14 13 12 11 10 8 7 6 6 6 7 9 10 11
9 8 5 4 4 3 4 5 4 5 7 9 8 4 5 6 7 7 6 9 9 11 12 13 16 16 11 9 8 4 2 2 2 7 8 8 8 10 13 13 12 13 15 17 20 22 27 30 30 30 31 32 33 34 34 35 35 36 34 32 31 30 28 27 26 24 22 21 20 18 16 15 13 12 11 10 9 7 6 5 5 6 7 9 10 11
6 7 7 6 4 4 5 2 1 3 9 10 6 5 7 7 8 9 6 8 9 11 12 13 15 15 10 8 7 4 4 3 5 8 8 8 9 11 11 8 6 10 13 15 18 21 24 27 29 31 33 33 32 33 35 36 36 36 35 32 31 30 28 27 26 24 22 21 19 17 16 14 13 12 11 9 7 6 5 5 5 6 7 9 10 12
5 3 5 6 4 4 6 4 5 7 10 6 6 7 8 9 9 10 3 8 6 9 12 13 14 13 9 8 7 6 6 5 8 8 6 7 8 8 8 6 4 8 13 17 22 25 28 30 31 32 33 34 34 34 36 37 37 36 34 32 32 30 29 28 26 24 22 20 18 17 15 14 13 11 10 8 6 5 5 4 5 6 8 9 11 13
6 4 3 5 5 5 7 6 4 5 7 5 6 7 8 10 12 10 3 9 6 8 10 12 13 12 10 9 7 7 7 8 8 6 4 4 3 1 3 5 5 8 12 16 21 27 30 32 33 34 35 37 37 37 38 38 36 35 34 33 32 30 29 28 26 24 22 20 18 16 15 14 13 11 9 7 5 5 4 4 4 6 8 10 12 14
3 2 3 5 5 5 6 5 4 4 6 6 6 5 7 10 9 7 8 7 5 6 5 6 10 10 7 8 7 7 8 5 2 1 0 3 5 4 4 6 7 9 13 17 22 27 31 32 34 35 36 37 38 38 38 38 36 34 33 33 31 29 28 27 25 23 21 19 17 16 15 13 12 10 8 7 5 4 3 3 5 6 8 10 12 14
3 2 1 3 4 3 4 3 3 6 5 5 4 3 5 7 5 7 7 2 4 5 2 3 7 7 6 8 8 7 4 1 3 3 4 5 5 4 5 8 11 10 12 16 21 26 29 28 27 29 30 32 36 38 38 38 35 32 32 31 29 28 27 25 24 22 21 19 18 16 15 13 11 9 8 6 5 3 2 4 5 7 9 11 13 15
6 5 2 4 5 3 3 3 3 6 4 7 9 3 4 5 6 5 2 1 2 5 3 3 3 4 6 8 7 5 4 3 3 4 4 4 4 5 5 7 9 11 14 17 20 24 27 25 24 25 26 29 32 35 36 36 33 31 30 29 27 27 26 24 23 22 20 19 18 16 14 12 10 9 7 6 4 3 2 4 5 7 10 12 14 16
5 6 4 4 4 4 5 6 6 5 4 5 6 3 5 5 4 4 5 3 2 3 3 3 1 2 5 7 5 5 5 4 3 4 4 3 4 5 5 7 9 12 15 18 20 23 26 25 24 24 24 26 29 31 32 33 32 30 28 27 27 27 25 24 23 21 20 19 18 16 14 12 10 8 7 5 3 2 3 4 6 8 10 13 15 17
6 7 5 4 4 5 5 7 6 4 3 2 1 0 3 3 2 4 6 4 2 1 2 3 2 0 3 7 7 5 4 4 5 5 5 5 5 5 6 7 10 13 15 17 19 22 23 25 26 25 24 24 26 28 28 30 32 31 29 28 28 26 25 24 23 22 20 19 17 15 13 11 9 7 6 4 3 2 3 4 7 9 11 14 16 17
4 4 4 3 3 4 4 4 3 2 2 2 3 2 3 4 4 4 6 5 3 1 1 3 3 2 4 7 6 4 5 6 7 6 5 6 6 5 6 7 9 12 15 17 19 20 21 23 25 25 24 23 24 26 26 28 31 32 30 29 27 26 25 24 23 22 20 18 16 15 13 10 9 7 5 4 3 3 3 5 8 10 12 14 15 16
3 3 4 3 5 5 5 4 4 4 4 4 4 4 5 5 4 3 5 5 4 3 3 2 2 2 3 5 6 6 6 7 7 6 5 5 6 5 6 7 10 13 16 18 20 22 24 25 24 24 24 23 23 25 26 26 28 30 30 29 27 25 24 24 23 21 20 18 16 14 12 10 8 7 6 4 3 3 4 6 9 11 12 13 13 15
2 4 4 3 6 6 3 2 3 4 4 4 4 4 4 3 3 4 5 3 3 4 4 3 2 2 2 2 3 6 6 6 7 6 5 5 5 5 6 8 11 14 16 19 22 24 25 26 25 25 25 25 24 25 26 26 27 27 28 27 26 25 25 24 22 21 19 17 15 13 11 10 9 7 6 4 3 4 5 7 9 11 11 10 11 13
3 5 4 4 4 1 1 1 4 6 6 6 5 4 2 1 3 4 5 5 5 5 5 6 5 4 4 4 2 4 4 4 5 5 6 5 5 5 7 10 13 15 17 20 23 25 26 26 26 26 26 25 26 26 26 26 26 26 26 26 26 26 26 24 22 20 18 17 15 13 11 10 8 7 5 3 3 5 6 8 10 11 10 9 10 11
4 4 3 4 5 3 3 4 5 5 3 2 3 4 4 2 6 7 6 6 6 4 3 3 3 3 3 3 2 4 5 5 4 5 5 5 5 8 11 13 15 16 18 20 21 23 24 25 26 27 26 26 27 28 27 27 27 26 26 26 27 26 25 24 22 20 18 17 15 13 12 10 8 6 4 2 3 5 6 8 9 10 10 9 8 8
4 5 5 5 5 4 4 5 4 5 5 3 2 2 2 2 6 8 6 5 5 3 3 4 3 3 3 3 3 4 3 4 5 6 5 5 7 11 15 17 18 18 19 21 22 22 22 23 25 27 27 28 29 29 28 28 28 27 26 26 26 25 23 23 22 21 19 17 15 14 12 10 8 6 4 2 2 4 6 8 9 10 10 9 8 8
Wind_Direction
166 163 202 203 192 194 184 159 183 213 183 166 162 150 160 155 192 237 235 289 126 132 213 200 206 235 229 238 240 230 210 210 235 234 220 208 193 192 192 195 199 203 216 212 205 203 200 199 197 196 197 198 199 201 202 202 203 203 203 204 206 208 208 206 206 206 206 208 210 214 218 222 225 227 230 231 232 235 237 240 243 247 249 252 253 254
170 196 213 197 180 186 184 176 204 232 213 176 170 168 187 166 180 243 203 278 30 143 233 203 206 250 241 238 244 208 184 216 222 214 219 216 204 197 191 197 199 197 202 192 198 201 197 196 194 194 194 195 197 198 200 202 203 204 205 206 207 207 206 206 206 207 207 208 208 210 215 220 223 227 231 235 239 242 244 245 247 251 253 256 257 258
192 216 211 200 186 176 183 192 211 230 214 195 185 170 201 197 159 348 338 331 28 142 256 222 199 249 257 248 247 200 188 215 213 203 206 201 201 202 194 198 189 170 171 165 177 188 190 191 191 192 194 196 199 198 200 202 203 204 205 208 208 206 205 206 208 208 209 211 213 215 218 220 223 228 232 237 243 247 249 249 250 255 257 261 263 263
201 220 203 199 192 171 183 203 210 228 218 186 184 176 198 192 157 199 280 318 38 118 174 108 187 269 279 270 260 217 202 217 214 212 216 201 198 205 199 191 180 172 175 174 170 175 178 182 186 190 193 194 196 196 197 201 202 203 204 206 207 206 206 207 209 210 212 214 216 219 222 224 226 231 233 236 241 245 248 246 247 252 256 261 264 266
211 221 173 180 196 183 179 205 201 205 239 209 184 184 181 178 175 175 167 135 25 16 91 85 23 305 258 240 255 233 203 222 218 207 218 220 197 185 161 160 176 179 176 177 185 184 177 178 183 188 190 192 194 196 197 199 202 203 204 205 207 207 207 208 209 210 211 212 213 214 218 222 223 225 226 224 228 233 235 238 241 245 252 260 264 264
220 228 137 167 197 191 180 206 195 182 216 242 200 194 175 168 151 123 128 106 59 331 278 112 62 295 271 233 241 229 185 210 212 193 200 207 191 167 163 170 174 178 179 176 180 186 187 188 190 192 193 194 197 199 201 202 204 205 205 204 206 207 208 209 209 209 209 208 208 207 208 211 210 206 205 204 206 210 218 233 245 249 255 261 266 271
235 234 132 177 190 190 187 204 204 172 160 221 234 190 153 142 127 132 138 112 123 221 268 113 148 257 311 278 244 221 194 211 222 217 219 219 210 194 195 200 180 174 183 162 152 169 181 188 190 195 201 203 204 203 203 206 208 208 207 204 205 207 208 208 208 207 207 207 206 206 207 207 201 196 194 200 208 217 227 234 236 237 237 240 248 262
208 179 183 190 178 185 185 193 209 160 136 216 236 143 131 131 136 148 142 120 167 182 355 37 127 207 290 278 263 186 178 220 248 239 246 241 223 209 201 199 178 181 189 174 167 168 172 181 187 193 201 207 210 207 204 204 205 207 208 205 205 206 206 207 206 206 206 206 206 207 209 208 205 202 201 207 212 214 219 219 212 208 208 216 230 242
184 180 197 184 164 184 190 197 199 142 133 230 205 135 135 137 141 145 129 108 113 113 328 297 139 162 266 277 314 94 160 222 240 232 237 229 218 204 189 178 166 176 184 179 181 168 158 171 182 187 191 198 204 205 203 199 197 199 201 202 202 202 203 203 202 203 204 205 205 205 207 207 206 205 201 202 204 205 211 216 213 208 209 218 231 238
232 191 196 172 158 184 186 203 194 141 136 200 140 101 85 86 99 106 112 102 71 99 228 251 192 156 267 281 319 82 184 223 230 235 231 218 211 193 177 169 162 152 141 153 160 150 142 149 163 171 176 185 194 198 199 195 191 190 190 193 195 196 197 197 196 199 201 203 204 204 203 200 194 191 194 197 199 200 205 213 219 222 229 239 244 247
267 243 200 159 166 183 154 139 193 152 138 131 98 77 61 44 53 59 60 89 91 249 244 247 223 133 257 278 228 196 217 206 206 234 224 206 203 189 176 171 169 151 137 142 142 142 138 142 155 165 172 178 184 191 194 191 186 183 183 184 185 186 188 189 190 194 197 200 204 204 201 195 189 189 196 203 204 207 212 217 224 230 239 248 254 254
344 3 335 278 259 182 111 80 16 37 114 103 91 102 89 23 17 27 3 52 137 242 258 260 279 130 199 261 241 237 251 205 186 204 201 190 189 185 181 178 175 167 156 150 145 145 139 137 148 157 162 165 168 175 181 184 181 176 176 178 176 177 180 182 183 186 189 192 196 199 196 193 193 196 201 206 211 222 228 221 212 206 207 209 185 162
6 330 312 340 302 166 114 93 33 9 48 87 117 124 109 60 26 55 272 256 204 241 269 278 280 183 227 252 252 261 264 231 210 207 189 179 179 181 181 176 171 165 159 157 156 152 142 140 146 150 151 155 161 163 164 171 174 170 170 172 170 169 174 177 177 178 179 180 182 186 186 186 190 193 195 199 205 212 211 196 187 188 183 178 173 177
6 308 317 354 322 239 140 143 147 193 121 126 146 140 131 129 111 191 237 267 230 249 277 284 272 243 264 267 252 247 250 259 253 213 177 170 172 172 169 157 149 152 154 158 154 148 148 144 144 145 146 150 157 160 159 161 166 166 163 165 165 162 167 172 172 174 174 170 172 176 179 181 181 181 183 189 194 193 185 178 176 174 168 166 169 188
157 247 268 192 225 315 205 175 159 150 146 167 164 136 143 154 148 184 206 190 205 253 285 281 243 188 199 258 256 250 269 314 327 153 138 139 147 145 140 129 131 140 143 143 135 132 137 135 135 138 139 141 147 157 160 159 162 163 162 163 162 157 159 165 167 171 171 167 168 172 175 179 181 180 181 181 178 174 170 168 166 160 161 165 166 172
158 190 282 287 284 121 207 260 126 119 143 225 144 114 157 175 144 147 176 172 164 139 261 235 230 207 202 264 276 307 358 20 46 89 110 118 130 133 138 143 144 146 146 140 128 124 126 125 128 131 133 133 135 145 154 156 161 165 165 167 165 160 161 164 166 170 173 174 174 174 173 174 173 171 169 163 159 161 163 164 161 153 150 146 127 107
160 173 312 334 10 23 205 270 338 122 169 193 119 161 205 160 118 119 175 131 101 135 237 209 243 286 311 278 280 354 9 349 61 102 132 145 149 147 159 168 161 158 156 147 138 135 127 122 125 128 130 131 129 134 143 148 155 159 159 162 163 162 163 165 167 168 167 167 165 163 161 159 158 158 159 158 156 156 155 150 144 132 120 109 98 92
154 119 320 17 64 287 243 156 360 30 131 120 156 198 188 97 89 110 138 21 66 174 262 219 214 268 283 247 291 311 256 243 230 200 172 168 168 166 176 181 172 164 157 147 138 133 126 123 124 127 128 129 129 132 138 143 147 149 149 150 150 151 152 154 157 156 154 155 154 154 155 155 156 158 158 155 150 146 141 132 123 115 105 97 91 88
134 115 307 332 200 276 340 83 103 342 87 133 180 180 119 131 201 125 141 161 154 203 269 271 237 239 205 214 248 238 232 231 224 213 197 192 187 180 179 178 171 159 151 147 140 133 129 127 127 128 129 130 131 133 136 141 145 146 147 148 146 145 146 149 151 151 152 153 153 152 154 155 155 154 149 142 137 133 126 119 114 109 102 96 93 89
131 126 230 286 274 263 1 57 176 223 344 51 85 88 81 136 169 172 163 155 159 193 234 270 306 256 229 213 194 207 220 212 204 204 202 199 192 184 177 172 171 167 164 160 152 146 136 133 131 133 134 134 135 136 138 142 144 144 146 147 145 144 145 147 149 150 149 150 149 147 147 148 145 139 133 129 129 124 117 113 111 107 102 100 96 91
131 120 168 264 339 150 182 216 187 184 180 129 125 158 191 118 129 161 184 137 133 161 194 195 252 263 251 207 189 209 221 210 198 198 202 198 190 187 180 174 174 172 170 162 152 147 138 135 134 135 137 137 137 137 139 142 142 142 144 145 145 145 145 145 146 146 144 143 143 141 139 138 134 131 128 127 125 119 115 113 110 107 104 100 95 88
137 113 140 152 138 177 224 259 210 196 185 160 170 184 185 159 127 150 221 237 121 145 176 166 218 269 258 200 203 224 231 219 202 194 195 192 188 188 183 179 177 169 167 162 153 149 143 140 138 137 138 138 138 137 138 140 141 141 142 143 144 144 145 145 144 143 140 139 138 136 134 133 131 130 128 126 122 117 115 112 108 105 101 96 89 81
110 101 112 127 197 208 253 275 242 228 173 132 190 189 160 145 125 144 199 232 167 167 171 132 175 273 262 224 225 243 249 238 209 190 186 188 186 182 179 177 171 163 162 157 152 150 148 146 143 141 140 139 139 138 138 140 141 141 141 142 143 143 142 143 143 141 140 139 137 134 133 132 130 130 127 123 120 116 113 109 105 102 96 90 83 76
97 99 105 82 320 311 313 312 319 314 123 148 228 182 150 167 141 144 175 172 159 193 160 136 235 267 275 271 257 264 273 250 206 188 178 177 180 177 174 171 164 160 157 153 151 150 149 147 144 143 143 142 141 141 141 141 141 141 141 143 143 142 142 143 143 142 142 140 136 134 133 131 130 130 126 122 118 115 111 108 104 100 92 88 82 74
119 126 121 110 96 4 336 303 291 273 194 199 225 166 132 115 104 120 153 106 143 215 162 157 234 252 270 299 315 323 336 281 199 194 175 171 176 176 172 169 164 159 155 155 152 149 151 151 151 151 149 146 145 143 143 143 143 144 144 144 144 142 143 144 144 144 143 140 137 134 133 131 130 129 124 120 118 114 112 108 104 99 92 87 81 73
128 154 142 132 153 181 200 207 207 191 182 220 207 162 158 146 145 167 166 128 217 233 154 161 225 249 281 317 326 330 351 141 193 192 182 181 179 175 172 171 168 163 162 162 157 157 159 159 158 156 152 150 148 146 146 146 146 146 145 144 145 145 145 146 146 145 142 140 137 134 132 131 130 127 123 121 118 115 112 107 101 96 89 83 76 69
115 172 178 166 181 192 191 194 162 137 147 192 200 188 187 186 176 163 140 170 198 189 178 211 226 242 275 291 279 278 262 218 201 181 185 193 186 180 176 169 164 162 162 161 159 160 162 162 161 157 153 152 152 152 152 151 150 149 147 146 147 148 148 147 147 144 141 140 137 134 133 131 129 127 123 120 117 112 108 102 95 91 85 78 73 65
116 195 200 184 197 194 170 167 160 154 172 194 196 191 190 186 166 160 189 208 171 134 228 243 226 231 250 242 239 245 227 223 222 201 197 193 183 177 165 156 156 157 158 163 169 171 168 166 161 158 157 156 156 157 155 153 153 152 150 149 149 151 150 149 147 145 142 140 137 134 132 130 128 126 121 117 114 108 103 97 91 87 82 75 68 59
132 191 204 186 196 181 137 158 168 169 182 191 190 191 188 178 170 182 210 212 164 162 230 236 219 223 228 216 229 228 201 204 211 202 191 166 161 161 156 161 168 169 173 178 181 179 174 170 166 163 162 160 160 160 158 156 156 154 152 150 151 152 151 151 149 146 143 141 138 135 133 131 127 123 119 115 111 105 99 92 87 84 78 70 63 56
139 184 201 165 164 149 102 165 176 178 185 192 197 195 187 184 188 195 211 214 197 203 229 235 237 245 231 207 232 239 207 201 186 155 153 160 169 169 168 176 182 183 188 188 185 183 177 172 170 167 166 166 165 163 160 159 159 157 154 153 154 154 154 154 151 147 145 142 139 136 135 132 128 123 119 114 108 102 96 90 84 80 73 65 60 56
143 191 187 113 121 283 346 48 146 173 180 192 205 198 186 189 199 207 217 219 209 223 244 255 272 271 241 188 226 247 191 147 142 173 193 188 176 172 176 187 193 195 198 194 186 181 176 172 173 173 173 172 170 166 163 162 162 161 158 156 157 157 156 156 152 149 148 144 140 139 137 134 130 126 122 115 108 102 95 88 82 76 71 63 57 51
104 147 45 82 118 256 341 34 76 81 96 184 221 200 187 189 201 210 216 213 200 215 239 249 255 258 226 162 214 227 155 161 193 202 205 195 177 178 185 195 200 201 200 194 185 182 180 180 181 180 178 175 171 169 167 166 165 164 162 160 159 157 157 157 154 151 149 145 143 141 139 136 132 128 124 118 111 105 95 88 80 74 68 59 52 44
134 134 88 100 141 266 332 19 107 70 60 252 239 201 191 195 202 208 225 228 211 204 216 225 235 242 194 167 222 211 159 197 219 206 200 199 191 191 194 198 203 205 202 195 189 187 188 188 187 183 179 175 175 175 174 172 169 168 165 161 159 158 158 158 155 153 149 146 145 144 140 138 134 129 126 120 114 105 95 87 79 72 62 51 43 35
137 136 137 132 137 261 316 24 74 101 218 243 232 169 181 190 191 197 221 225 215 207 213 228 244 245 157 186 227 212 184 207 220 209 206 199 188 195 204 208 208 207 203 196 192 193 192 188 185 182 180 179 179 178 177 175 172 168 164 161 160 160 160 158 155 153 150 148 147 145 141 140 137 133 128 120 112 103 94 86 77 67 55 43 36 30
146 136 146 144 122 140 27 62 92 223 230 258 328 169 182 187 188 199 218 223 215 212 222 239 255 247 197 206 226 218 207 218 224 223 221 204 188 190 199 211 213 207 201 197 196 195 189 182 179 180 181 181 180 178 177 175 171 166 163 163 162 161 160 159 156 153 151 150 149 147 146 143 140 134 126 118 111 101 94 85 71 59 48 37 30 25
160 154 150 147 143 138 115 146 206 243 275 302 290 220 175 174 182 200 235 249 230 210 216 233 244 241 224 222 235 238 228 228 243 248 234 216 203 193 195 207 209 202 199 199 196 190 185 184 183 182 180 179 178 177 175 174 171 165 163 163 162 162 161 159 156 154 154 153 152 150 149 144 140 133 124 117 111 101 93 80 63 49 41 34 26 21
158 156 148 163 184 160 146 187 237 312 305 269 253 216 161 166 169 173 227 255 229 202 205 220 235 242 234 224 235 242 169 144 263 268 243 217 212 211 209 212 208 204 205 203 198 192 188 186 184 180 177 175 175 176 174 173 170 165 162 163 163 163 162 160 158 157 157 157 156 153 149 144 138 131 124 120 113 103 91 75 57 40 32 29 21 16
146 159 158 173 193 131 123 173 234 275 264 248 216 177 167 168 163 156 192 250 231 200 203 214 229 239 229 215 223 198 133 150 245 261 242 213 214 220 224 234 226 211 207 194 182 180 180 180 179 177 176 173 173 176 175 172 170 165 162 163 164 164 163 162 161 161 161 161 159 154 149 143 138 133 128 123 115 105 91 71 53 36 25 22 17 12
89 104 133 154 173 145 152 185 189 216 247 235 166 169 171 158 137 124 164 266 231 182 195 210 224 233 216 200 198 157 140 201 239 247 233 212 217 221 219 228 221 200 197 187 178 175 174 175 174 173 173 172 173 177 177 173 170 166 163 164 165 164 165 165 165 165 164 163 159 154 149 144 139 136 132 126 118 106 90 66 47 32 19 14 13 11
78 73 121 165 188 175 177 203 211 229 250 224 185 190 174 148 124 116 206 263 221 177 194 199 211 227 211 188 178 162 177 215 232 241 233 195 185 165 176 190 181 170 174 177 177 176 172 170 169 169 172 176 177 177 176 172 170 167 165 165 166 166 167 168 168 167 165 162 159 155 150 146 142 138 133 130 122 108 90 61 33 23 17 12 10 9
86 98 146 178 190 178 179 206 246 258 246 222 212 205 160 132 121 155 214 239 198 201 223 184 198 222 199 165 172 189 203 215 211 234 23 104 103 72 74 114 132 146 159 165 169 170 167 169 172 173 176 179 177 176 175 172 170 168 166 166 167 167 168 169 168 168 166 163 159 155 151 147 145 141 137 134 124 107 82 53 28 15 15 11 6 5
150 146 148 169 173 170 169 183 255 270 245 172 149 184 163 143 168 210 218 208 167 193 208 162 193 201 163 168 195 201 191 122 64 67 62 85 110 103 92 108 115 124 142 153 161 164 164 166 171 172 174 176 175 174 174 172 170 167 166 166 167 167 168 169 169 169 166 163 159 155 152 150 148 145 143 137 126 106 63 42 31 16 13 10 4 3
161 152 179 189 174 151 146 168 215 257 239 129 115 136 205 192 206 208 176 83 189 183 144 130 184 183 165 182 201 178 133 101 76 77 74 84 108 113 119 127 128 133 142 149 158 165 163 162 164 167 169 172 173 173 174 172 169 166 165 165 166 168 169 170 170 168 165 161 157 155 154 153 151 149 143 137 128 110 62 37 30 17 10 8 5 4
174 166 180 206 189 149 165 201 210 215 198 143 129 172 199 193 196 165 135 133 201 197 152 111 97 226 183 164 156 144 131 124 123 118 110 113 124 130 138 141 143 149 153 155 161 165 164 160 159 161 164 168 171 173 175 174 168 164 164 166 167 170 171 170 170 167 163 160 157 156 156 154 151 150 143 136 129 100 55 33 26 18 12 10 9 7
208 193 175 185 189 168 184 212 219 209 195 160 35 277 162 115 90 129 126 113 122 199 169 128 112 198 153 134 129 138 149 160 170 169 163 163 166 164 159 158 158 157 156 157 159 163 164 160 157 156 158 164 171 173 176 177 172 167 166 169 171 172 172 170 169 166 162 160 159 158 157 154 151 149 144 136 121 77 39 25 22 20 16 14 13 11
234 195 157 157 193 214 227 210 183 186 199 129 45 35 90 70 55 94 97 89 107 142 130 140 149 158 144 133 130 148 176 175 174 183 185 176 174 168 153 151 156 155 153 154 156 160 161 157 154 155 156 161 170 174 177 180 178 174 172 172 173 173 172 170 168 165 163 161 160 158 156 154 152 151 146 135 111 68 34 25 24 22 18 16 17 16
285 181 152 155 177 196 232 222 170 161 174 140 80 53 57 47 30 71 99 116 144 132 98 112 151 167 153 136 137 160 184 177 168 179 186 173 170 171 159 154 158 160 160 160 160 162 160 157 156 159 159 162 169 175 177 179 181 179 176 173 172 172 172 171 168 166 164 162 160 159 158 157 158 156 152 141 114 80 48 30 26 25 23 21 21 20
226 164 169 192 184 184 229 241 128 90 72 75 77 73 71 54 33 48 68 95 105 84 64 45 38 43 43 62 125 148 166 182 180 178 181 179 174 169 167 165 163 163 165 166 166 167 165 163 164 165 166 167 170 173 176 178 180 180 177 173 172 173 173 172 169 166 164 162 161 161 161 162 165 164 158 143 107 71 46 31 29 31 33 32 27 20
152 159 176 178 173 174 338 141 119 81 46 29 33 42 47 110 110 74 52 51 54 45 33 22 12 13 25 25 79 134 158 202 201 177 171 178 175 168 170 171 168 167 169 171 172 173 172 171 171 170 170 172 172 173 176 177 178 179 177 174 175 176 174 171 168 165 164 164 164 164 166 169 172 171 166 141 91 60 43 36 35 40 47 46 35 24
140 169 180 158 170 205 219 189 162 129 104 54 28 27 13 66 110 97 73 67 68 61 54 41 7 353 29 47 95 147 178 209 201 172 172 178 178 177 174 171 171 173 174 174 175 178 178 178 177 175 174 174 174 175 176 177 178 180 179 177 177 178 175 171 167 166 166 167 168 170 173 176 176 175 174 154 97 70 60 53 47 49 56 51 36 32
174 189 178 159 173 208 208 188 161 127 125 137 127 71 18 59 97 94 90 93 95 108 130 118 85 33 20 20 51 98 156 197 180 166 174 187 188 185 181 178 178 178 178 178 177 178 181 182 180 179 178 177 176 177 178 180 181 181 180 180 179 177 175 173 171 170 171 172 174 177 178 179 179 177 173 152 84 57 49 51 55 59 58 50 42 49